Regional Weather Roundup
Issued by NWS Charleston, SC

Current Version | Previous Version | Text Only | Print | Product List | Glossary Off
Versions: 1 2 3 4 5 6 7 8 9 10 11 12 13 14 15 16 17 18 19 20 21 22 23 24 25 26 27 28 29 30 31 32 33 34 35 36 37 38 39 40 41 42 43 44 45 46 47 48 49 50

000
ASUS42 KCHS 201510
RWRCHS
REGIONAL WEATHER ROUNDUP
NATIONAL WEATHER SERVICE CHARLESTON SC
1000 AM EST SAT DEC 20 2014

NOTE: "FAIR" INDICATES FEW OR NO CLOUDS BELOW 12,000 FEET WITH NO
SIGNIFICANT WEATHER AND/OR OBSTRUCTIONS TO VISIBILITY.

NOT ALL STATIONS ARE QUALITY CONTROLLED BY THE NATIONAL
WEATHER SERVICE. USE DATA WITH CAUTION...ESPECIALLY
DEWPOINT OBSERVATIONS.

SCZ027-030-031-034>040-042>050-201600-
...SOUTHEAST SOUTH CAROLINA...

CITY           SKY/WX    TMP DP  RH WIND       PRES   REMARKS
N CHARLESTON   LGT RAIN  51  49  92 N7        30.22R FOG
WATERFRONT PRK   N/A     52 N/A N/A N10G17      N/A
MOUNT PLEASANT LGT RAIN  52  52 100 NE6       30.21R
PINOPOLIS      NOT AVBL
MONCKS CORNER  LGT RAIN  50  48  93 CALM      30.23R
SUMMERVILLE    DRIZZLE   50  50 100 N5        30.23S
BEAUFORT MCAS  CLOUDY    52  50  93 N10       30.20R
BEAUFORT ARPT  LGT RAIN  52  52 100 N9        30.19R
HILTON HEAD IS PTSUNNY   54  52  94 N8        30.20R
WALTERBORO     DRIZZLE   50 N/A N/A CALM      30.22S
ALLENDALE      LGT RAIN  48  48 100 VRB3      30.21R VSB 1

...SOUTHERN MIDLANDS AND PEE DEE...

CITY           SKY/WX    TMP DP  RH WIND       PRES   REMARKS
GEORGETOWN     NOT AVBL
KINGSTREE      NOT AVBL
ORANGEBURG     LGT RAIN  48  45  89 NE6       30.23R FOG
BARNWELL       DRIZZLE   48  48 100 CALM      30.23R
AIKEN          DRIZZLE   46  46 100 E3        30.25R
MANNING        NOT AVBL
COLUMBIA       CLOUDY    47  43  86 E6        30.24R
SUMTER         CLOUDY    45  43  92 NE8       30.22S
FLORENCE       LGT RAIN  44  40  85 NE8       30.25R
MYRTLE BEACH   LGT RAIN  48  45  87 NE8       30.26R
N MYRTLE BEACH LGT RAIN  47  43  86 NE8       30.24R FOG

$$

GAZ063-065-086>088-099>101-113>116-118-119-134>141-150-201600-
...SOUTHEAST GEORGIA...

CITY           SKY/WX    TMP DP  RH WIND       PRES   REMARKS
SAVANNAH ARPT  CLOUDY    51  48  89 N7        30.20R
HUNTER AAF     CLOUDY    52  51  95 N5        30.18R
FORT STEWART   LGT RAIN  52  50  93 N6        30.19R
STATESBORO     DRIZZLE   49  49 100 CALM      30.21R
SYLVANIA       LGT RAIN  49  49  99 CALM      30.22S
CLAXTON        DRIZZLE   50  50 100 CALM      30.22R

...CSRA...CENTRAL AND FAR SOUTHEAST GEORGIA...

CITY           SKY/WX    TMP DP  RH WIND       PRES   REMARKS
THOMSON        CLOUDY    51  51 100 CALM      30.25R
AUGUSTA-BUSH   LGT RAIN  49  47  93 SE3       30.22R FOG
AUGUSTA-DANIEL CLOUDY    49  48  97 SE5       30.21R
SWAINSBORO     RAIN     N/A N/A N/A CALM      30.23R
VIDALIA        DRIZZLE   50  50 100 CALM      30.22R
EASTMAN        LGT RAIN  50  50 100 SE7       30.23S
HAZLEHURST     LGT RAIN  51  51 100 N5        30.20R
ALMA           CLOUDY    52  49  89 N3        30.19R FOG
WAYCROSS       CLOUDY    56  53  90 NE3       30.18R
JESUP          CLOUDY    55  54  94 N5        30.19R
BAXLEY         LGT RAIN  52  52 100 N3        30.19S
BRUNSWICK      CLOUDY    55  50  82 CALM      30.19R
SAINT SIMONS   CLOUDY    57  52  83 N3        30.18R

$$

SCZ027-028-034-036>038-045-046-048>050-GAZ119-141-201600-
...LAKE AND SUPPLEMENTAL COASTAL OBSERVATIONS...

STATION/POSITION TIME  TEMP    WIND        PRES    WAVE   SWELL
                       AIR SEA DIR/SP/G            HT/PER HT/PER/DIR
                 (UTC) (F)     (DEG/KT/KT) (MB)    (FT/S) (FT/S/D)
UPR LAKE MARION  NOT AVBL
WINYAH BAY       1400   53      50/ 11     1022.0S
LAKE MURRAY      1400   45      40/  2/  4 1022.7S
ACE BASIN NERRS  1400   51      20/  1     1021.0S
FORT PULASKI     1500   53 57  340/  5/  7 1022.4R
SAPELO ISLAND    1400   55      30/  5     1021.0S

$$

ANZ835-935-AMZ111-154-330-350-352-354-370-450-454-472-201600-
...C-MAN AND BUOY OBSERVATIONS...

STATION/POSITION TIME  TEMP    WIND        PRES    WAVE   SWELL
                       AIR SEA DIR/SP/G            HT/PER HT/PER/DIR
                 (UTC) (F)     (DEG/KT/KT) (MB)    (FT/S) (FT/S/D)
BUOY 41004       1500   61 68   50/ 16/ 17 1021.0R   4/ 5   2/10
BUOY 41008       1500   58 57   10/  8/ 10 1021.4R   2/ 4   2/ 60/11
FOLLY BEACH CMAN 1400   54      50/ 13/ 15 1022.0R
CAPERS NEARSHORE 1400   56      50/ 12/ 16   N/A
FRIPP NEARSHORE  NOT AVBL


STATION/POSITION TIME  TEMP    WIND        PRES    WAVE   SWELL
                       AIR SEA DIR/SP/G            HT/PER HT/PER/DIR
                 (UTC) (F)     (DEG/KT/KT) (MB)    (FT/S) (FT/S/D)
5E ST. MARYS GA  1500      61                N/A     2/11
FRYING PAN BUOY  1500   57 66   60/ 14/ 17 1023.5R   3/ 4   2/ 80/11
BUOY 41025       1500   48                 1025.6R   3/ 7
CAPE LOOKOUT NC  1400   46      20/ 11/ 14 1024.5R
BUOY 41002       1356   66 72   80/ 12/ 14 1022.6R   3/10   2/ 80/10
BUOY 41010       1500   73 77  180/  6/  8 1020.9R   3/10   3/100/10
ST AUGUSTINE FL  1500   62     350/ 11/ 12 1021.4R


$$



USA.gov is the U.S. government's official web portal to all federal, state and local government web resources and services.